This demonstration page uses our WeatherBlox Daily Observations layout. Learn more.

38.89511, -77.03637

Hourly Observations for February 1, 2020

Temp ( °F °C ) Dew Point ( °F °C ) Humidity (%) Winds ( mph kmh ) Pressure ( in mb ) Visibility ( mi km ) Precip ( " mm )
12:52 am 00:52 Clear 39 3.9 33 0.6 79 79 S 5 7 30.11 1020 10 16.0934 0 0
1:52 am 01:52 Mostly Cloudy 37 2.8 33 0.6 86 86 SSW 5 7 30.09 1019 10 16.0934 0 0
2:52 am 02:52 Mostly Clear 36 2.2 33 0.6 89 89 Calm 30.08 1019 10 16.0934 0 0
3:52 am 03:52 Clear 36 2.2 31 -0.6 82 82 NNW 3 6 30.05 1018 10 16.0934 0 0
4:52 am 04:52 Clear 34 1.1 31 -0.6 89 89 Calm 30.04 1017 10 16.0934 0 0
5:52 am 05:52 Mostly Clear 35 1.7 33 0.6 93 93 Calm 30.04 1017 8 12.87472 0 0
6:52 am 06:52 Mostly Clear 35 1.7 33 0.6 93 93 NNE 3 6 30.03 1017 8 12.87472 0 0
7:52 am 07:52 Mostly Cloudy 34 1.1 31 -0.6 89 89 NNE 5 7 30.03 1017 9 14.48406 0 0
8:52 am 08:52 Mostly Cloudy 37 2.8 33 0.6 86 86 Calm 30.02 1017 9 14.48406 0 0
9:52 am 09:52 Mostly Cloudy 40 4.4 34 1.1 79 79 ENE 3 6 29.98 1015 8 12.87472 0 0
10:52 am 10:52 Mostly Cloudy 43 6.1 34 1.1 71 71 E 3 6 29.96 1015 9 14.48406 0 0
11:52 am 11:52 Mostly Cloudy 46 7.8 34 1.1 63 63 NNE 7 11 29.93 1014 10 16.0934 0 0
12:52 pm 12:52 Mostly Cloudy 47 8.3 35 1.7 63 63 ENE 3 6 29.87 1012 10 16.0934 0 0
1:52 pm 13:52 Mostly Cloudy 49 9.4 35 1.7 59 59 E 3 6 29.83 1010 10 16.0934 0 0
2:52 pm 14:52 Mostly Cloudy 49 9.4 36 2.2 61 61 E 3 6 29.8 1009 10 16.0934 0 0
3:52 pm 15:52 Mostly Cloudy 50 10 36 2.2 59 59 Calm 29.78 1009 10 16.0934 0 0
4:52 pm 16:52 Cloudy 49 9.4 37 2.8 64 64 S 6 9 29.78 1008 10 16.0934 0 0
7:30 pm 19:30 Cloudy with Light Rain 44 6.7 40 4.4 85 85 NNW 9 15 29.79 1009 7 11.26538 0.01 0.254
8:18 pm 20:18 Cloudy with Light Rain 43 6.1 41 5 93 93 NNW 7 11 29.79 1009 5 8.0467 0.01 0.254
9:52 pm 21:52 Cloudy 43 6.1 40 4.4 89 89 NW 7 11 29.78 1008 7 11.26538 0.001 0.001
10:52 pm 22:52 Cloudy 43 6.1 39 3.9 86 86 NW 8 13 29.76 1008 9 14.48406 0 0
11:52 pm 23:52 Cloudy 42 5.6 38 3.3 85 85 NNW 5 7 29.75 1008 10 16.0934 0 0

Powered by AerisWeather